This is the latest recevied weather packets stored in our database for station/object K8JMX-13. If no packets are shown the sender has not sent any weather packets the latest 1 day(s).
| Time | Temp. | Humidity | Pressure | Rain* | Wind** | Luminosity | Snow |
|---|---|---|---|---|---|---|---|
| 1778007069 | 21.11° C | 55% | 1007.3 hPa | 0 mm | 0.89 m/s, 284° | 256 W/m² | - |
| 1778006766 | 20.56° C | 55% | 1007.2 hPa | 0 mm | 1.79 m/s, 279° | 179 W/m² | - |
| 1778006463 | 20.56° C | 55% | 1007.4 hPa | 0 mm | 1.34 m/s, 164° | 139 W/m² | - |
| 1778006159 | 20.56° C | 56% | 1007.4 hPa | 0 mm | 0.89 m/s, 227° | 136 W/m² | - |
| 1778005857 | 20.56° C | 55% | 1007.3 hPa | 0 mm | 3.13 m/s, 225° | 93 W/m² | - |
| 1778005553 | 20.56° C | 56% | 1007.2 hPa | 0 mm | 0.89 m/s, 269° | 76 W/m² | - |
| 1778005250 | 20.56° C | 56% | 1007.3 hPa | 0 mm | 0.89 m/s, 190° | 77 W/m² | - |
| 1778004947 | 20.56° C | 56% | 1007.3 hPa | 0 mm | 1.79 m/s, 221° | 79 W/m² | - |
| 1778004644 | 20.56° C | 56% | 1007.3 hPa | 0 mm | 1.79 m/s, 193° | 55 W/m² | - |
| 1778004340 | 20.56° C | 56% | 1007.1 hPa | 0 mm | 1.79 m/s, 255° | 55 W/m² | - |
| 1778004038 | 20.56° C | 56% | 1007.1 hPa | 0 mm | 0.89 m/s, 198° | 51 W/m² | - |
| 1778003737 | 21.11° C | 55% | 1007 hPa | 0 mm | 1.34 m/s, 238° | 42 W/m² | - |
| 1778003434 | 21.11° C | 54% | 1007 hPa | 0 mm | 2.24 m/s, 231° | 96 W/m² | - |
| 1778003131 | 21.11° C | 54% | 1007 hPa | 0 mm | 1.34 m/s, 210° | 136 W/m² | - |
| 1778002827 | 21.11° C | 55% | 1007.2 hPa | 0 mm | 2.24 m/s, 232° | 180 W/m² | - |
| 1778002525 | 21.11° C | 55% | 1007.3 hPa | 0 mm | 1.79 m/s, 233° | 121 W/m² | - |
| 1778002221 | 21.11° C | 54% | 1007.2 hPa | 0 mm | 2.24 m/s, 230° | 62 W/m² | - |
| 1778001919 | 21.67° C | 54% | 1007.2 hPa | 0 mm | 1.34 m/s, 236° | 96 W/m² | - |
| 1778001615 | 21.11° C | 55% | 1007.5 hPa | 0 mm | 0.89 m/s, 217° | 114 W/m² | - |
| 1778001311 | 21.67° C | 53% | 1007.4 hPa | 0 mm | 3.58 m/s, 311° | 126 W/m² | - |
| 1778001008 | 21.67° C | 53% | 1007.3 hPa | 0 mm | 3.13 m/s, 275° | 219 W/m² | - |
| 1778000704 | 21.67° C | 52% | 1007.2 hPa | 0 mm | 1.34 m/s, 252° | 201 W/m² | - |
| 1778000399 | 21.67° C | 52% | 1007.2 hPa | 0 mm | 2.68 m/s, 228° | 226 W/m² | - |
| 1778000095 | 22.22° C | 51% | 1007.3 hPa | 0 mm | 2.68 m/s, 327° | 265 W/m² | - |
| 1777999791 | 22.22° C | 50% | 1007.3 hPa | 0 mm | 1.79 m/s, 170° | 357 W/m² | - |
* Rain latest hour (hover to see other rain measurements)
** Current wind speed in m/s (hover to see current wind gust speed)